GBPCK BGGH-KHFD

Flight info

Callsign GBPCK
Flight time 1h 20m
Altitude 43000
Route AMKOX1A AMKOX DCT URTAK/N0504F430 N876C ALSOP N866C YBC Q812 MAIRE DCT PBERG Q133 CAM STELA1
Aircraft C750/M-SBDE3FGHRWXY/S

Departure

Time 2026-05-03 23:09
Airport Nuuk International Airport (BGGH)

Arrival

Time 2026-05-04 00:30
Airport Hartford Brainard Airport (KHFD)
Time Latitude Longitude Altitude Speed Heading
2026-05-03 22:55 64.19133 -51.67440 278 ft 0 kts 251°
2026-05-03 23:03 64.19133 -51.67441 278 ft 1 kts 251°
2026-05-03 23:03 64.19120 -51.67494 278 ft 6 kts 233°
2026-05-03 23:04 64.19073 -51.67570 278 ft 9 kts 204°
2026-05-03 23:04 64.19026 -51.67607 278 ft 6 kts 196°
2026-05-03 23:04 64.18994 -51.67629 278 ft 7 kts 197°
2026-05-03 23:04 64.18940 -51.67668 278 ft 10 kts 198°
2026-05-03 23:05 64.18868 -51.67721 278 ft 10 kts 198°
2026-05-03 23:05 64.18811 -51.67765 278 ft 7 kts 199°
2026-05-03 23:05 64.18784 -51.67789 278 ft 2 kts 209°
2026-05-03 23:05 64.18771 -51.67798 278 ft 6 kts 195°
2026-05-03 23:06 64.18702 -51.67840 278 ft 14 kts 195°
2026-05-03 23:06 64.18626 -51.67954 278 ft 11 kts 262°
2026-05-03 23:06 64.18641 -51.68084 278 ft 6 kts 285°
2026-05-03 23:06 64.18648 -51.68226 278 ft 12 kts 252°
2026-05-03 23:07 64.18555 -51.68326 280 ft 18 kts 200°
2026-05-03 23:07 64.18445 -51.68403 280 ft 15 kts 195°
2026-05-03 23:07 64.18333 -51.68492 278 ft 19 kts 198°
2026-05-03 23:07 64.18214 -51.68519 277 ft 15 kts 169°
2026-05-03 23:08 64.18145 -51.68609 276 ft 12 kts 287°
2026-05-03 23:08 64.18190 -51.68599 276 ft 0 kts 21°
2026-05-03 23:08 64.18193 -51.68596 276 ft 9 kts 20°
2026-05-03 23:08 64.18573 -51.68317 280 ft 106 kts 18°
2026-05-03 23:09 64.19470 -51.67673 390 ft 151 kts 17°
2026-05-03 23:09 64.20541 -51.66912 801 ft 171 kts 17°
2026-05-03 23:09 64.21788 -51.66622 1141 ft 197 kts 356°
2026-05-03 23:09 64.23152 -51.67829 1328 ft 230 kts 324°
2026-05-03 23:10 64.24084 -51.71057 1614 ft 258 kts 284°
2026-05-03 23:10 64.23929 -51.75072 2568 ft 252 kts 244°
2026-05-03 23:10 64.22784 -51.77854 3630 ft 240 kts 206°
2026-05-03 23:10 64.21163 -51.78509 4580 ft 242 kts 179°
2026-05-03 23:11 64.19462 -51.78025 5412 ft 249 kts 173°
2026-05-03 23:11 64.17727 -51.77434 6296 ft 253 kts 174°
2026-05-03 23:11 64.15980 -51.76961 7183 ft 258 kts 176°
2026-05-03 23:11 64.14164 -51.76502 8067 ft 265 kts 176°
2026-05-03 23:12 64.12337 -51.76100 8992 ft 268 kts 180°
2026-05-03 23:12 64.10450 -51.75856 9898 ft 272 kts 178°
2026-05-03 23:12 64.08521 -51.75513 10434 ft 288 kts 178°
2026-05-03 23:12 64.06426 -51.75184 10539 ft 316 kts 179°
2026-05-03 23:13 64.04137 -51.74863 10716 ft 337 kts 179°
2026-05-03 23:13 64.01823 -51.74520 11497 ft 337 kts 178°
2026-05-03 23:13 63.99467 -51.74163 12160 ft 341 kts 178°
2026-05-03 23:13 63.97106 -51.73265 12703 ft 351 kts 163°
2026-05-03 23:14 63.94890 -51.70854 13412 ft 354 kts 155°
2026-05-03 23:14 63.92697 -51.68324 14061 ft 358 kts 156°
2026-05-03 23:14 63.90446 -51.65787 14639 ft 361 kts 156°
2026-05-03 23:14 63.88171 -51.63234 15228 ft 365 kts 156°
2026-05-03 23:15 63.85909 -51.60672 15817 ft 368 kts 156°
2026-05-03 23:15 63.83599 -51.58058 16424 ft 372 kts 156°
2026-05-03 23:15 63.81202 -51.55851 16937 ft 372 kts 169°
2026-05-03 23:15 63.78669 -51.55368 17555 ft 369 kts 185°
2026-05-03 23:16 63.76144 -51.56349 18220 ft 368 kts 199°
2026-05-03 23:16 63.73807 -51.58734 18828 ft 368 kts 212°
2026-05-03 23:16 63.71662 -51.61954 19404 ft 371 kts 215°
2026-05-03 23:16 63.69529 -51.65182 19985 ft 373 kts 214°
2026-05-03 23:17 63.67326 -51.68406 20584 ft 377 kts 214°
2026-05-03 23:17 63.65012 -51.71781 21193 ft 381 kts 214°
2026-05-03 23:17 63.60590 -51.78316 22326 ft 387 kts 214°
2026-05-03 23:17 63.56034 -51.84974 23462 ft 394 kts 213°
2026-05-03 23:18 63.51395 -51.91748 24451 ft 401 kts 213°
2026-05-03 23:18 63.46657 -51.98631 25413 ft 406 kts 213°
2026-05-03 23:18 63.41914 -52.05494 26340 ft 412 kts 213°
2026-05-03 23:18 63.37059 -52.12493 27289 ft 418 kts 213°
2026-05-03 23:19 63.32131 -52.19567 28238 ft 424 kts 212°
2026-05-03 23:19 63.27118 -52.26733 29205 ft 430 kts 212°
2026-05-03 23:19 63.22088 -52.33894 30121 ft 436 kts 212°
2026-05-03 23:19 63.16945 -52.41184 30905 ft 441 kts 212°
2026-05-03 23:20 63.11755 -52.48511 31972 ft 439 kts 212°
2026-05-03 23:20 63.06598 -52.55758 33119 ft 437 kts 212°
2026-05-03 23:20 63.01461 -52.62946 34247 ft 435 kts 212°
2026-05-03 23:20 62.96408 -52.69988 35076 ft 436 kts 212°
2026-05-03 23:21 62.91266 -52.77123 35932 ft 437 kts 212°
2026-05-03 23:21 62.86099 -52.84264 36820 ft 439 kts 212°
2026-05-03 23:21 62.80903 -52.91414 37728 ft 440 kts 212°
2026-05-03 23:21 62.75755 -52.98468 38634 ft 442 kts 212°
2026-05-03 23:22 62.65294 -53.12714 40087 ft 444 kts 212°
2026-05-03 23:22 62.60032 -53.19834 40808 ft 445 kts 212°
2026-05-03 23:22 62.54743 -53.26961 41522 ft 447 kts 212°
2026-05-03 23:23 62.49448 -53.34064 42237 ft 448 kts 212°
2026-05-03 23:23 62.44146 -53.41150 42919 ft 449 kts 212°
2026-05-03 23:23 62.40631 -53.45828 43095 ft 456 kts 212°
2026-05-03 23:23 62.37177 -53.50416 43114 ft 465 kts 212°
2026-05-03 23:24 62.31624 -53.57761 43124 ft 480 kts 212°
2026-05-03 23:24 62.25837 -53.65383 43119 ft 492 kts 212°
2026-05-03 23:24 62.13904 -53.80990 43108 ft 508 kts 212°
2026-05-03 23:25 62.06292 -53.90869 43104 ft 513 kts 212°
2026-05-03 23:25 61.96037 -54.04086 43104 ft 515 kts 211°
2026-05-03 23:26 61.83796 -54.19727 43085 ft 514 kts 211°
2026-05-03 23:26 61.71603 -54.35161 43072 ft 513 kts 211°
2026-05-03 23:27 61.59319 -54.50564 43051 ft 513 kts 211°
2026-05-03 23:27 61.47125 -54.65714 43043 ft 511 kts 211°
2026-05-03 23:28 61.34824 -54.80855 43046 ft 512 kts 211°
2026-05-03 23:28 61.22615 -54.95747 43033 ft 510 kts 211°
2026-05-03 23:29 61.10305 -55.10624 43027 ft 510 kts 210°
2026-05-03 23:29 60.98081 -55.25265 43016 ft 509 kts 210°
2026-05-03 23:30 60.85768 -55.39880 42994 ft 508 kts 210°
2026-05-03 23:30 60.73574 -55.54225 42990 ft 509 kts 210°
2026-05-03 23:31 60.61228 -55.68621 42995 ft 510 kts 210°
2026-05-03 23:31 60.48844 -55.82932 42986 ft 511 kts 210°
2026-05-03 23:32 60.36534 -55.97033 42980 ft 511 kts 210°
2026-05-03 23:32 60.24108 -56.11143 42970 ft 511 kts 209°
2026-05-03 23:33 60.07843 -56.29424 42956 ft 511 kts 209°
2026-05-03 23:33 59.82854 -56.57110 42952 ft 511 kts 209°
2026-05-03 23:34 59.57926 -56.84254 42942 ft 512 kts 208°
2026-05-03 23:34 59.32925 -57.11017 42930 ft 513 kts 208°
2026-05-03 23:35 59.07744 -57.37522 42930 ft 513 kts 208°
2026-05-03 23:35 58.82533 -57.63616 42923 ft 512 kts 208°
2026-05-03 23:36 58.57475 -57.89125 42923 ft 511 kts 207°
2026-05-03 23:36 58.37574 -58.26109 42920 ft 515 kts 236°
2026-05-03 23:37 58.24011 -58.63483 42914 ft 514 kts 234°
2026-05-03 23:37 58.05098 -59.15400 42907 ft 514 kts 233°
2026-05-03 23:38 57.91439 -59.52162 42906 ft 514 kts 233°
2026-05-03 23:38 57.74843 -59.96051 42901 ft 514 kts 233°
2026-05-03 23:39 57.58224 -60.39209 42897 ft 513 kts 232°
2026-05-03 23:39 57.41326 -60.82313 42890 ft 514 kts 232°
2026-05-03 23:40 57.24450 -61.24600 42901 ft 513 kts 231°
2026-05-03 23:40 57.07322 -61.66772 42890 ft 513 kts 231°
2026-05-03 23:41 56.90141 -62.08346 42890 ft 513 kts 231°
2026-05-03 23:41 56.79154 -62.24309 42892 ft 506 kts 205°
2026-05-03 23:41 56.66574 -62.35991 42888 ft 508 kts 207°
2026-05-03 23:42 56.41588 -62.59373 42899 ft 508 kts 207°
2026-05-03 23:42 56.16398 -62.82731 42898 ft 506 kts 206°
2026-05-03 23:43 55.91367 -63.05613 42901 ft 506 kts 206°
2026-05-03 23:43 55.66356 -63.28142 42910 ft 505 kts 206°
2026-05-03 23:44 55.41179 -63.50495 42894 ft 505 kts 206°
2026-05-03 23:44 55.16154 -63.72398 42893 ft 504 kts 206°
2026-05-03 23:45 54.90910 -63.94181 42888 ft 503 kts 205°
2026-05-03 23:45 54.65923 -64.15443 42876 ft 503 kts 205°
2026-05-03 23:46 54.40646 -64.36656 42870 ft 502 kts 205°
2026-05-03 23:46 54.15643 -64.57353 42857 ft 502 kts 205°
2026-05-03 23:47 53.90572 -64.77828 42850 ft 501 kts 205°
2026-05-03 23:47 53.65300 -64.98192 42851 ft 502 kts 204°
2026-05-03 23:48 53.39961 -65.18340 42851 ft 502 kts 204°
2026-05-03 23:48 53.14764 -65.38112 42847 ft 503 kts 204°
2026-05-03 23:49 52.89327 -65.57813 42849 ft 502 kts 204°
2026-05-03 23:49 52.64077 -65.77117 42844 ft 503 kts 204°
2026-05-03 23:50 52.38684 -65.96283 42841 ft 502 kts 204°
2026-05-03 23:50 52.13355 -66.15161 42833 ft 502 kts 204°
2026-05-03 23:51 51.87855 -66.33928 42823 ft 502 kts 203°
2026-05-03 23:51 51.62366 -66.52453 42824 ft 503 kts 203°
2026-05-03 23:52 51.36882 -66.70747 42815 ft 504 kts 203°
2026-05-03 23:52 51.11195 -66.88963 42811 ft 504 kts 203°
2026-05-03 23:53 50.85499 -67.06963 42809 ft 504 kts 203°
2026-05-03 23:53 50.59903 -67.24678 42807 ft 505 kts 203°
2026-05-03 23:54 50.34037 -67.42368 42802 ft 506 kts 202°
2026-05-03 23:54 50.08263 -67.59786 42805 ft 506 kts 202°
2026-05-03 23:55 49.82267 -67.77147 42777 ft 508 kts 202°
2026-05-03 23:55 49.56294 -67.94291 42741 ft 509 kts 202°
2026-05-03 23:56 49.30348 -68.11220 42763 ft 508 kts 202°
2026-05-03 23:56 49.05130 -68.30764 42766 ft 510 kts 214°
2026-05-03 23:57 48.81574 -68.54558 42777 ft 511 kts 213°
2026-05-03 23:57 48.57861 -68.78371 42775 ft 513 kts 213°
2026-05-03 23:58 48.33980 -69.02082 42777 ft 513 kts 212°
2026-05-03 23:58 48.09996 -69.25620 42778 ft 514 kts 212°
2026-05-03 23:59 47.86067 -69.48839 42771 ft 514 kts 213°
2026-05-03 23:59 47.74326 -69.61027 42756 ft 515 kts 224°
2026-05-03 23:59 47.65495 -69.77510 42768 ft 515 kts 229°
2026-05-04 00:00 47.47118 -70.10308 42762 ft 515 kts 230°
2026-05-04 00:00 47.28818 -70.42576 42769 ft 515 kts 230°
2026-05-04 00:01 47.10287 -70.74886 42768 ft 515 kts 229°
2026-05-04 00:01 46.91762 -71.06702 42772 ft 514 kts 229°
2026-05-04 00:02 46.72354 -71.36975 42793 ft 514 kts 220°
2026-05-04 00:02 46.50933 -71.64922 42803 ft 514 kts 221°
2026-05-04 00:03 46.31357 -71.94575 42802 ft 512 kts 231°
2026-05-04 00:03 46.13525 -72.26787 42801 ft 511 kts 232°
2026-05-04 00:04 45.95902 -72.58735 42800 ft 509 kts 236°
2026-05-04 00:04 45.80134 -72.92669 42808 ft 510 kts 236°
2026-05-04 00:05 45.71633 -73.08916 42785 ft 512 kts 223°
2026-05-04 00:05 45.58964 -73.17505 42802 ft 518 kts 195°
2026-05-04 00:05 45.31132 -73.28324 42795 ft 517 kts 198°
2026-05-04 00:06 45.03360 -73.39282 42803 ft 518 kts 198°
2026-05-04 00:06 44.75741 -73.50111 42825 ft 517 kts 198°
2026-05-04 00:07 44.61370 -73.51575 42836 ft 527 kts 175°
2026-05-04 00:07 44.46737 -73.49659 42836 ft 526 kts 179°
2026-05-04 00:07 44.17462 -73.46173 42839 ft 527 kts 179°
2026-05-04 00:08 43.88289 -73.42829 42842 ft 527 kts 179°
2026-05-04 00:08 43.59112 -73.39806 42851 ft 526 kts 180°
2026-05-04 00:09 43.30055 -73.37147 42797 ft 523 kts 180°
2026-05-04 00:09 43.26181 -73.36800 41832 ft 515 kts 180°
2026-05-04 00:09 43.22609 -73.36472 41139 ft 506 kts 180°
2026-05-04 00:10 43.19129 -73.36154 40483 ft 494 kts 180°
2026-05-04 00:10 43.15751 -73.35854 39877 ft 481 kts 180°
2026-05-04 00:10 43.09219 -73.35274 38670 ft 461 kts 181°
2026-05-04 00:10 43.02911 -73.34710 37438 ft 447 kts 181°
2026-05-04 00:11 42.96752 -73.34818 36279 ft 436 kts 193°
2026-05-04 00:11 42.90716 -73.36277 35122 ft 448 kts 193°
2026-05-04 00:11 42.84429 -73.37449 33914 ft 459 kts 192°
2026-05-04 00:11 42.78201 -73.38789 32759 ft 460 kts 193°
2026-05-04 00:12 42.71840 -73.40063 31536 ft 464 kts 193°
2026-05-04 00:12 42.65424 -73.41385 30302 ft 466 kts 193°
2026-05-04 00:12 42.59020 -73.42683 29023 ft 458 kts 193°
2026-05-04 00:12 42.52801 -73.43531 27797 ft 460 kts 180°
2026-05-04 00:13 42.46742 -73.40651 26581 ft 471 kts 149°
2026-05-04 00:13 42.41993 -73.34564 25396 ft 468 kts 135°
2026-05-04 00:13 42.37482 -73.28264 24162 ft 460 kts 136°
2026-05-04 00:13 42.33012 -73.22127 22900 ft 451 kts 135°
2026-05-04 00:14 42.28713 -73.16165 21731 ft 445 kts 136°
2026-05-04 00:14 42.24384 -73.10229 20563 ft 440 kts 135°
2026-05-04 00:14 42.20099 -73.04328 19405 ft 435 kts 135°
2026-05-04 00:14 42.15918 -72.98605 18280 ft 431 kts 135°
2026-05-04 00:15 42.11364 -72.93505 17230 ft 420 kts 147°
2026-05-04 00:15 42.06598 -72.88908 16116 ft 417 kts 145°
2026-05-04 00:15 42.01991 -72.84288 15033 ft 410 kts 146°
2026-05-04 00:15 41.97441 -72.79866 13973 ft 405 kts 145°
2026-05-04 00:16 41.92934 -72.75399 12876 ft 398 kts 146°
2026-05-04 00:16 41.88465 -72.71041 11827 ft 394 kts 146°
2026-05-04 00:16 41.84113 -72.66764 10807 ft 377 kts 146°
2026-05-04 00:16 41.81851 -72.64549 10291 ft 331 kts 147°
2026-05-04 00:17 41.79962 -72.62712 9851 ft 329 kts 147°
2026-05-04 00:17 41.78118 -72.60915 9482 ft 318 kts 147°
2026-05-04 00:17 41.76384 -72.59218 9341 ft 307 kts 147°
2026-05-04 00:17 41.74633 -72.57519 8930 ft 314 kts 147°
2026-05-04 00:18 41.72876 -72.55811 8463 ft 312 kts 147°
2026-05-04 00:18 41.71236 -72.54203 8299 ft 285 kts 147°
2026-05-04 00:18 41.69594 -72.52611 8020 ft 295 kts 147°
2026-05-04 00:18 41.67945 -72.51013 7575 ft 297 kts 147°
2026-05-04 00:19 41.66295 -72.49406 7163 ft 288 kts 146°
2026-05-04 00:19 41.64725 -72.47866 6963 ft 272 kts 147°
2026-05-04 00:19 41.63198 -72.46397 6739 ft 266 kts 148°
2026-05-04 00:19 41.61718 -72.44971 6487 ft 258 kts 147°
2026-05-04 00:20 41.60320 -72.43610 6279 ft 239 kts 148°
2026-05-04 00:20 41.58993 -72.42325 6098 ft 238 kts 148°
2026-05-04 00:20 41.57632 -72.41049 5826 ft 236 kts 152°
2026-05-04 00:20 41.56074 -72.40449 5034 ft 237 kts 189°
2026-05-04 00:21 41.54573 -72.41015 4822 ft 212 kts 217°
2026-05-04 00:21 41.53539 -72.42280 4449 ft 196 kts 243°
2026-05-04 00:21 41.53037 -72.43888 4069 ft 186 kts 262°
2026-05-04 00:21 41.53068 -72.45589 3640 ft 183 kts 278°
2026-05-04 00:22 41.53185 -72.47273 3320 ft 176 kts 276°
2026-05-04 00:22 41.53282 -72.48794 2721 ft 156 kts 276°
2026-05-04 00:22 41.53384 -72.50209 2385 ft 156 kts 276°
2026-05-04 00:22 41.53486 -72.51601 2510 ft 147 kts 276°
2026-05-04 00:23 41.53588 -72.53007 2496 ft 155 kts 277°
2026-05-04 00:23 41.53694 -72.54455 2515 ft 160 kts 277°
2026-05-04 00:23 41.53803 -72.55958 2504 ft 162 kts 277°
2026-05-04 00:23 41.53939 -72.57401 2493 ft 149 kts 284°
2026-05-04 00:24 41.54379 -72.58549 2489 ft 134 kts 305°
2026-05-04 00:24 41.55060 -72.59358 2488 ft 130 kts 322°
2026-05-04 00:24 41.55919 -72.59801 2494 ft 135 kts 339°
2026-05-04 00:24 41.56838 -72.60070 2491 ft 136 kts 338°
2026-05-04 00:25 41.57760 -72.60366 2506 ft 139 kts 339°
2026-05-04 00:25 41.58714 -72.60662 2513 ft 143 kts 340°
2026-05-04 00:25 41.59696 -72.60965 2508 ft 145 kts 340°
2026-05-04 00:25 41.60673 -72.61263 2507 ft 145 kts 340°
2026-05-04 00:26 41.61660 -72.61567 2458 ft 147 kts 340°
2026-05-04 00:26 41.62670 -72.61878 2334 ft 150 kts 340°
2026-05-04 00:26 41.63686 -72.62188 2206 ft 143 kts 340°
2026-05-04 00:26 41.64587 -72.62457 2026 ft 123 kts 339°
2026-05-04 00:27 41.65367 -72.62698 1833 ft 113 kts 338°
2026-05-04 00:27 41.66115 -72.62932 1670 ft 109 kts 338°
2026-05-04 00:27 41.66862 -72.63198 1450 ft 115 kts 334°
2026-05-04 00:27 41.67623 -72.63546 1291 ft 117 kts 333°
2026-05-04 00:28 41.68383 -72.63941 1133 ft 119 kts 333°
2026-05-04 00:28 41.69157 -72.64342 995 ft 119 kts 335°
2026-05-04 00:28 41.69930 -72.64718 843 ft 118 kts 337°
2026-05-04 00:28 41.70447 -72.64965 703 ft 120 kts 339°
2026-05-04 00:29 41.71542 -72.65249 435 ft 124 kts 356°
2026-05-04 00:29 41.72119 -72.65202 318 ft 121 kts
2026-05-04 00:29 41.73214 -72.64964 68 ft 121 kts
2026-05-04 00:29 41.73746 -72.64841 25 ft 109 kts
2026-05-04 00:30 41.74219 -72.64762 27 ft 20 kts
2026-05-04 00:30 41.74334 -72.64752 27 ft 16 kts 342°
2026-05-04 00:30 41.74339 -72.64856 26 ft 12 kts 201°
2026-05-04 00:30 41.74255 -72.64863 26 ft 13 kts 188°
2026-05-04 00:31 41.74167 -72.64883 25 ft 13 kts 186°
2026-05-04 00:31 41.74082 -72.64900 25 ft 12 kts 189°
2026-05-04 00:31 41.73995 -72.64919 25 ft 13 kts 189°
2026-05-04 00:31 41.73960 -72.64968 24 ft 9 kts 270°
2026-05-04 00:32 41.73971 -72.65042 26 ft 1 kts 298°
2026-05-04 00:32 41.73967 -72.65070 24 ft 7 kts 208°
2026-05-04 00:32 41.73902 -72.65084 23 ft 10 kts 188°
2026-05-04 00:32 41.73877 -72.65090 23 ft 0 kts 190°